Miscellaneous Local Product
Issued by NWS Hastings, NE

Home | Current Version | Previous Version | Text Only | Print | Product List | Glossary On
Versions: 1 2 3 4 5 6 7 8 9 10 11 12 13 14 15 16 17 18 19 20 21 22 23 24 25 26 27 28 29 30 31 32 33 34 35 36 37 38 39 40 41 42 43 44 45 46 47 48 49 50
000
AXUS43 KGID 300102
MISGRI

GID CWA HOURLY WEATHER ROUNDUP
NATIONAL WEATHER SERVICE HASTINGS NE
800 PM CDT SUN MAR 29 2015

NOTE: "FAIR" INDICATES FEW OR NO CLOUDS BELOW 12,000 FEET WITH NO
SIGNIFICANT WEATHER AND/OR OBSTRUCTIONS TO VISIBILITY.

...SOUTH CENTRAL NEBRASKA...

CITY           SKY/WX    TMP DP  RH WIND       PRES   REMARKS
GRAND ISLAND   CLEAR     53  16  23 N6        30.14R
HASTINGS       CLEAR     53  15  22 N7        30.14R
KEARNEY        CLEAR     57  12  17 N7        30.15R
ORD            CLEAR     50  11  20 W5        30.12R
YORK           CLEAR     54  23  30 N6        30.12S
AURORA         CLEAR     55  20  25 N7        30.12S
LEXINGTON      CLEAR     58  13  16 N6        30.14S
HOLDREGE       CLEAR     58  11  15 N6        30.15R
HEBRON         CLEAR     59  17  19 N6        30.13R

...NEBRASKA PANHANDLE...

CITY           SKY/WX    TMP DP  RH WIND       PRES   REMARKS
CHADRON        PTCLDY    60  24  25 CALM      30.07F
ALLIANCE       MOCLDY    60  22  23 CALM      30.10F
SCOTTSBLUFF    PTCLDY    59  24  26 S7        30.11R
SIDNEY         CLEAR     54  26  34 S6        30.15S

...WESTERN AND NORTH CENTRAL NEBRASKA...

CITY           SKY/WX    TMP DP  RH WIND       PRES   REMARKS
VALENTINE      CLEAR     55  22  27 N3        30.09F
AINSWORTH      CLEAR     54  19  24 W5        30.11S
ONEILL         CLEAR     56  20  24 NW7       30.10S
BROKEN BOW     CLEAR     50  17  27 NW6       30.13R
IMPERIAL         N/A     59  19  21 E5        30.15R
NORTH PLATTE   CLEAR     56  18  22 N3        30.13S
MCCOOK         CLEAR     60  17  18 NE5       30.15R

...EASTERN NEBRASKA...

CITY           SKY/WX    TMP DP  RH WIND       PRES   REMARKS
NORFOLK        CLEAR     55  20  25 NW12      30.09R
SO SIOUX CITY  CLEAR     54  21  27 NW10      30.06R
COLUMBUS       CLEAR     50  19  29 NW7       30.13R
ALBION         CLEAR     54  16  22 N5        30.11R
OMAHA EPPLEY   PTCLDY    52  23  32 NW9       30.08R
OFFUTT AFB     CLEAR     55  22  28 NW8       30.08R
MILLARD        CLEAR     60  20  22 NW6G16    30.08R
LINCOLN        CLEAR     58  23  26 NW8       30.12R
NEBRASKA CITY  CLEAR     55  22  27 N8        30.09R
BEATRICE       CLEAR     54  29  38 N9        30.12R
FALLS CITY     CLEAR     54  29  38 NW7       30.10R

...NORTHERN KANSAS...

CITY           SKY/WX    TMP DP  RH WIND       PRES   REMARKS
GOODLAND       CLEAR     55  22  27 NE5       30.17R
HILL CITY      CLEAR     56  16  20 N8        30.17R
NORTON         CLEAR     54   5  14 N5        30.15S
PHILLIPSBURG   CLEAR     61  10  13 N6        30.16R
SMITH CENTER   CLEAR     55  16  21 N7        30.15S
BELOIT         CLEAR     52  21  30 N8        30.14R
HAYS           CLEAR     57  16  19 N9        30.16R
RUSSELL        CLEAR     57  17  21 N7        30.14R
CONCORDIA      CLEAR     56  21  25 N7        30.14R
SALINA         CLEAR     64  23  21 N13       30.13R
TOPEKA         CLEAR     56  36  47 NW8       30.12R



USA.gov is the U.S. government's official web portal to all federal, state and local government web resources and services.